contact:dominique.lefevre@mio.osupytheas.fr, maurice.libes@osupytheas.fr, didier.mallarino@osupytheas.fr
Project:EMSO http://www.emso-fr.org/EMSO-France
Depth: 2436.0 m
Title:EMSO Ligure Ouest : Data MII capteur AQUADOPP
Date,Latitude,Longitude,X_East,Y_North,Z_Up,Amplitude_X,Amplitude_Y,Amplitude_Z,Batterie,SoundSpeed,Heading,Pitch,Roll,Pressure,TIS,Speed,Direction
, degrees North, degrees East, m.s-1, m.s-1,m.s-1, 1, 1, 1, Volt, m.s-1, degree, degree, degree, dbar, degree_C, m.s-1, degree
2021-10-15T00:04:02,42.805,6.029,0.017,0.017,0.014,100.0,101.0,101.0,13.4,1505.2,325.3,-0.8,1.8,2470.684,13.28,0.024,45.0
2021-10-15T00:07:03,42.805,6.029,0.034,0.011,0.017,100.0,102.0,100.0,13.4,1505.2,328.2,-0.7,1.8,2470.66,13.28,0.035,72.1
2021-10-15T00:10:03,42.805,6.029,-0.007,0.006,0.004,101.0,101.0,101.0,13.4,1505.2,327.7,-0.7,1.8,2470.666,13.28,0.009,310.6
2021-10-15T00:13:03,42.805,6.029,0.031,-0.005,-0.004,100.0,101.0,99.0,13.4,1505.2,325.1,-0.7,1.8,2470.653,13.28,0.031,99.2
2021-10-15T00:16:03,42.805,6.029,-0.005,0.01,-0.02,101.0,101.0,100.0,13.4,1505.2,331.7,-0.7,1.8,2470.637,13.28,0.011,333.4
2021-10-15T00:19:03,42.805,6.029,0.021,0.029,0.016,100.0,101.0,99.0,13.4,1505.2,327.5,-0.8,1.8,2470.663,13.28,0.035,35.9
2021-10-15T00:22:03,42.805,6.029,0.024,-0.002,-0.017,100.0,101.0,99.0,13.4,1505.2,327.8,-0.8,1.8,2470.643,13.28,0.024,94.8
2021-10-15T00:25:03,42.805,6.029,0.0,-0.006,-0.017,100.0,102.0,99.0,13.3,1505.2,326.7,-0.7,1.8,2470.658,13.28,0.006,180.0
2021-10-15T00:28:03,42.805,6.029,0.015,0.01,-0.013,101.0,101.0,100.0,13.4,1505.2,331.7,-0.8,1.8,2470.654,13.28,0.018,56.3
2021-10-15T00:31:03,42.805,6.029,0.004,-0.002,-0.02,100.0,101.0,99.0,13.4,1505.2,326.7,-0.8,1.8,2470.643,13.28,0.004,116.6
2021-10-15T00:34:03,42.805,6.029,0.019,-0.001,-0.003,100.0,102.0,100.0,13.4,1505.2,327.0,-0.7,1.8,2470.671,13.28,0.019,93.0
2021-10-15T00:37:03,42.805,6.029,0.004,0.009,-0.018,100.0,101.0,100.0,13.3,1505.2,327.7,-0.8,1.8,2470.634,13.28,0.009,24.0
2021-10-15T00:40:03,42.805,6.029,0.003,0.014,0.012,100.0,102.0,99.0,13.3,1505.2,327.4,-0.8,1.8,2470.654,13.28,0.014,12.1
2021-10-15T00:43:03,42.805,6.029,0.017,0.026,0.017,101.0,100.0,100.0,13.4,1505.2,327.6,-0.8,1.8,2470.649,13.28,0.031,33.2
2021-10-15T00:46:03,42.805,6.029,0.028,0.0,-0.012,102.0,101.0,99.0,13.4,1505.2,328.5,-0.7,1.8,2470.676,13.28,0.028,90.0
2021-10-15T00:49:03,42.805,6.029,-0.017,0.022,-0.015,100.0,103.0,98.0,13.4,1505.2,326.8,-0.8,1.8,2470.617,13.28,0.027,322.3
2021-10-15T00:52:03,42.805,6.029,0.012,0.011,0.019,100.0,103.0,100.0,13.4,1505.2,325.7,-0.7,1.8,2470.651,13.28,0.016,47.5
2021-10-15T00:55:03,42.805,6.029,0.013,0.008,-0.007,100.0,101.0,100.0,13.4,1505.2,327.2,-0.8,1.9,2470.617,13.28,0.015,58.4
2021-10-15T00:58:03,42.805,6.029,0.003,0.046,0.049,102.0,103.0,98.0,13.3,1505.2,326.6,-0.7,1.8,2470.621,13.28,0.046,3.7
2021-10-15T01:04:03,42.805,6.029,0.04,0.007,0.036,102.0,103.0,101.0,13.4,1505.2,329.8,-0.8,1.8,2470.644,13.28,0.04,80.1
2021-10-15T01:07:03,42.805,6.029,-0.011,0.04,0.004,102.0,102.0,100.0,13.4,1505.2,326.9,-0.8,1.8,2470.7,13.28,0.041,344.6
2021-10-15T01:10:03,42.805,6.029,0.012,0.006,-0.022,101.0,102.0,100.0,13.4,1505.2,326.7,-0.8,1.8,2470.671,13.28,0.013,63.4
2021-10-15T01:13:03,42.805,6.029,0.049,0.008,-0.004,100.0,102.0,100.0,13.3,1505.2,325.6,-0.7,1.8,2470.657,13.28,0.049,80.7
2021-10-15T01:16:03,42.805,6.029,0.01,0.021,0.037,101.0,102.0,99.0,13.3,1505.2,328.6,-0.7,1.8,2470.656,13.28,0.023,25.5
2021-10-15T01:19:03,42.805,6.029,0.021,0.008,-0.006,101.0,102.0,100.0,13.4,1505.2,327.7,-0.8,1.8,2470.662,13.28,0.022,69.1
2021-10-15T01:22:03,42.805,6.029,0.027,0.0,0.027,101.0,102.0,100.0,13.4,1505.2,328.6,-0.8,1.8,2470.645,13.28,0.026,90.0
2021-10-15T01:25:03,42.805,6.029,0.0,-0.007,-0.024,102.0,100.0,100.0,13.3,1505.2,331.4,-0.7,1.8,2470.648,13.28,0.007,180.0
2021-10-15T01:28:03,42.805,6.029,0.002,-0.007,-0.037,100.0,102.0,101.0,13.3,1505.2,326.1,-0.8,1.8,2470.629,13.28,0.007,164.1
2021-10-15T01:31:03,42.805,6.029,0.027,0.007,-0.018,100.0,103.0,100.0,13.4,1505.2,325.7,-0.7,1.8,2470.657,13.28,0.027,75.5
2021-10-15T01:34:03,42.805,6.029,0.037,0.002,0.004,101.0,101.0,99.0,13.4,1505.2,325.1,-0.8,1.8,2470.612,13.28,0.037,86.9
2021-10-15T01:37:03,42.805,6.029,0.001,0.023,-0.003,102.0,103.0,99.0,13.4,1505.2,328.2,-0.7,1.9,2470.626,13.28,0.023,2.5
2021-10-15T01:40:03,42.805,6.029,0.014,-0.007,-0.012,102.0,101.0,99.0,13.3,1505.2,331.8,-0.7,1.8,2470.637,13.28,0.015,116.6
2021-10-15T01:43:03,42.805,6.029,0.018,0.006,-0.003,101.0,101.0,100.0,13.4,1505.2,327.5,-0.7,1.8,2470.665,13.28,0.018,71.6
2021-10-15T01:46:03,42.805,6.029,0.009,0.002,0.01,103.0,100.0,100.0,13.4,1505.2,326.5,-0.7,1.8,2470.679,13.28,0.009,77.5
2021-10-15T01:49:03,42.805,6.029,0.022,0.001,0.013,101.0,100.0,100.0,13.3,1505.2,326.6,-0.8,1.8,2470.649,13.28,0.022,87.4
2021-10-15T01:52:03,42.805,6.029,0.023,-0.006,0.006,100.0,102.0,100.0,13.4,1505.2,330.2,-0.8,1.8,2470.628,13.28,0.023,104.6
2021-10-15T01:55:03,42.805,6.029,0.021,-0.015,-0.011,104.0,101.0,101.0,13.4,1505.2,330.5,-0.7,1.8,2470.647,13.28,0.025,125.5
2021-10-15T01:58:03,42.805,6.029,0.011,-0.014,-0.024,101.0,100.0,101.0,13.4,1505.2,330.4,-0.7,1.8,2470.61,13.28,0.017,141.8
2021-10-15T02:04:03,42.805,6.029,0.023,0.0,0.019,101.0,101.0,101.0,13.3,1505.2,326.3,-0.8,1.8,2470.685,13.28,0.023,90.0
2021-10-15T02:07:03,42.805,6.029,0.022,0.012,-0.02,102.0,101.0,100.0,13.3,1505.2,324.9,-0.7,1.8,2470.681,13.28,0.025,61.4
2021-10-15T02:10:03,42.805,6.029,-0.001,0.002,-0.015,102.0,101.0,100.0,13.4,1505.2,328.8,-0.7,1.8,2470.65,13.28,0.002,333.4
2021-10-15T02:13:03,42.805,6.029,0.015,0.004,0.002,101.0,102.0,99.0,13.4,1505.2,331.1,-0.7,1.8,2470.654,13.28,0.015,75.1
2021-10-15T02:16:03,42.805,6.029,0.027,0.0,0.002,101.0,99.0,100.0,13.4,1505.2,328.6,-0.7,1.8,2470.669,13.28,0.026,90.0
2021-10-15T02:19:03,42.805,6.029,0.018,0.003,0.051,101.0,102.0,98.0,13.3,1505.2,327.4,-0.8,1.8,2470.691,13.28,0.018,80.5
2021-10-15T02:22:03,42.805,6.029,0.013,0.0,-0.001,102.0,101.0,99.0,13.4,1505.2,331.3,-0.8,1.8,2470.648,13.28,0.013,90.0
2021-10-15T02:25:03,42.805,6.029,0.033,-0.001,0.008,101.0,101.0,99.0,13.3,1505.2,325.3,-0.8,1.8,2470.665,13.28,0.033,91.7
2021-10-15T02:28:03,42.805,6.029,-0.003,-0.013,-0.018,99.0,101.0,101.0,13.3,1505.2,331.4,-0.8,1.8,2470.648,13.28,0.013,193.0
2021-10-15T02:31:03,42.805,6.029,0.033,-0.002,0.018,100.0,102.0,100.0,13.4,1505.2,328.2,-0.8,1.8,2470.661,13.28,0.033,93.5
2021-10-15T02:34:03,42.805,6.029,0.037,0.0,0.013,101.0,101.0,99.0,13.4,1505.2,331.1,-0.8,1.8,2470.657,13.28,0.037,90.0
2021-10-15T02:37:03,42.805,6.029,0.014,0.008,0.012,101.0,102.0,99.0,13.4,1505.2,326.7,-0.8,1.8,2470.68,13.28,0.016,60.3
2021-10-15T02:40:03,42.805,6.029,0.018,0.011,-0.007,102.0,100.0,99.0,13.4,1505.2,331.5,-0.8,1.8,2470.64,13.28,0.021,58.6
2021-10-15T02:43:03,42.805,6.029,0.015,0.01,0.022,101.0,102.0,100.0,13.4,1505.2,328.9,-0.8,1.8,2470.636,13.28,0.018,56.3
2021-10-15T02:46:03,42.805,6.029,0.01,-0.011,-0.004,100.0,100.0,101.0,13.4,1505.2,325.5,-0.7,1.8,2470.674,13.28,0.014,137.7
2021-10-15T02:49:03,42.805,6.029,0.023,-0.011,0.008,100.0,102.0,100.0,13.3,1505.2,328.4,-0.8,1.8,2470.63,13.28,0.025,115.6
2021-10-15T02:52:03,42.805,6.029,0.01,-0.015,-0.022,98.0,101.0,101.0,13.3,1505.2,327.4,-0.8,1.8,2470.64,13.28,0.018,146.3
2021-10-15T02:55:03,42.805,6.029,0.035,-0.005,-0.014,101.0,100.0,100.0,13.3,1505.2,326.7,-0.8,1.8,2470.688,13.28,0.035,98.1
2021-10-15T02:58:03,42.805,6.029,0.044,-0.023,0.017,100.0,101.0,100.0,13.4,1505.2,328.3,-0.8,1.8,2470.642,13.28,0.049,117.6
2021-10-15T03:04:03,42.805,6.029,0.008,-0.011,-0.011,101.0,99.0,100.0,13.4,1505.2,331.4,-0.7,1.9,2470.721,13.28,0.013,144.0
2021-10-15T03:07:03,42.805,6.029,0.031,0.0,0.008,101.0,101.0,100.0,13.4,1505.2,326.8,-0.8,1.8,2470.66,13.28,0.03,90.0
2021-10-15T03:10:03,42.805,6.029,0.042,-0.021,0.007,101.0,100.0,100.0,13.4,1505.2,330.8,-0.8,1.9,2470.679,13.28,0.046,116.6
2021-10-15T03:13:03,42.805,6.029,0.029,0.016,0.042,101.0,101.0,100.0,13.3,1505.2,328.0,-0.7,1.8,2470.68,13.28,0.033,61.1
2021-10-15T03:16:03,42.805,6.029,0.045,-0.019,-0.008,100.0,100.0,99.0,13.4,1505.2,326.4,-0.8,1.8,2470.651,13.28,0.048,112.9
2021-10-15T03:19:03,42.805,6.029,0.008,0.005,-0.022,102.0,101.0,100.0,13.3,1505.2,328.3,-0.7,1.9,2470.68,13.28,0.009,58.0
2021-10-15T03:22:03,42.805,6.029,0.024,-0.01,0.008,101.0,101.0,100.0,13.4,1505.2,331.2,-0.7,1.8,2470.641,13.28,0.026,112.6
2021-10-15T03:25:03,42.805,6.029,-0.014,-0.013,-0.049,101.0,100.0,100.0,13.4,1505.2,328.8,-0.8,1.8,2470.652,13.28,0.019,227.1
2021-10-15T03:28:03,42.805,6.029,0.023,0.006,-0.021,100.0,101.0,100.0,13.3,1505.2,331.5,-0.8,1.8,2470.708,13.28,0.023,75.4
2021-10-15T03:31:03,42.805,6.029,0.032,0.001,0.004,101.0,101.0,100.0,13.4,1505.2,329.6,-0.7,1.8,2470.633,13.28,0.032,88.2
2021-10-15T03:34:03,42.805,6.029,0.053,-0.009,0.008,101.0,100.0,101.0,13.4,1505.2,330.3,-0.7,1.8,2470.679,13.28,0.053,99.6
2021-10-15T03:37:03,42.805,6.029,0.01,-0.011,-0.01,100.0,101.0,100.0,13.3,1505.2,326.5,-0.7,1.8,2470.637,13.28,0.014,137.7
2021-10-15T03:40:03,42.805,6.029,0.001,0.005,0.033,100.0,102.0,100.0,13.4,1505.2,326.1,-0.7,1.8,2470.657,13.28,0.005,11.3
2021-10-15T03:43:03,42.805,6.029,0.011,-0.019,-0.045,101.0,102.0,100.0,13.4,1505.2,327.4,-0.8,1.8,2470.667,13.28,0.021,149.9
2021-10-15T03:46:03,42.805,6.029,0.015,0.0,-0.003,101.0,101.0,100.0,13.4,1505.2,327.0,-0.7,1.8,2470.648,13.28,0.015,90.0
2021-10-15T03:49:03,42.805,6.029,0.035,-0.012,-0.032,101.0,99.0,99.0,13.4,1505.2,329.4,-0.8,1.8,2470.652,13.28,0.037,108.9
2021-10-15T03:52:03,42.805,6.029,0.022,0.012,-0.004,100.0,101.0,101.0,13.4,1505.2,330.2,-0.7,1.8,2470.599,13.28,0.025,61.4
2021-10-15T03:55:03,42.805,6.029,0.036,-0.017,-0.016,101.0,102.0,100.0,13.3,1505.2,331.6,-0.8,1.8,2470.668,13.28,0.039,115.3
2021-10-15T03:58:03,42.805,6.029,0.024,-0.031,-0.034,99.0,101.0,100.0,13.4,1505.2,330.0,-0.8,1.8,2470.663,13.28,0.039,142.3
2021-10-15T04:04:03,42.805,6.029,0.014,-0.019,-0.004,101.0,101.0,100.0,13.4,1505.2,327.8,-0.8,1.8,2470.689,13.28,0.023,143.6
2021-10-15T04:07:03,42.805,6.029,0.021,-0.019,-0.023,101.0,102.0,100.0,13.4,1505.2,326.0,-0.8,1.8,2470.668,13.28,0.028,132.1
2021-10-15T04:10:03,42.805,6.029,0.034,-0.007,-0.002,100.0,101.0,99.0,13.4,1505.2,329.2,-0.8,1.8,2470.696,13.28,0.034,101.6
2021-10-15T04:13:03,42.805,6.029,0.011,0.003,0.028,100.0,100.0,100.0,13.4,1505.2,329.0,-0.8,1.8,2470.642,13.28,0.011,74.7
2021-10-15T04:16:03,42.805,6.029,0.035,-0.003,-0.004,101.0,101.0,99.0,13.3,1505.2,327.7,-0.8,1.8,2470.647,13.28,0.035,94.9
2021-10-15T04:19:03,42.805,6.029,0.036,-0.04,-0.054,101.0,102.0,99.0,13.4,1505.2,326.7,-0.8,1.8,2470.665,13.28,0.053,138.0
2021-10-15T04:22:03,42.805,6.029,0.034,-0.017,0.0,100.0,101.0,100.0,13.3,1505.2,327.5,-0.8,1.8,2470.661,13.28,0.038,116.6
2021-10-15T04:25:03,42.805,6.029,0.002,-0.005,-0.007,102.0,101.0,100.0,13.4,1505.2,329.9,-0.8,1.8,2470.642,13.28,0.005,158.2
2021-10-15T04:28:03,42.805,6.029,0.0,0.0,-0.026,101.0,101.0,100.0,13.4,1505.2,331.6,-0.8,1.8,2470.666,13.28,0.0,0.0
2021-10-15T04:31:03,42.805,6.029,0.008,-0.01,0.001,101.0,101.0,99.0,13.4,1505.2,327.4,-0.7,1.8,2470.653,13.28,0.012,141.3
2021-10-15T04:34:03,42.805,6.029,0.025,0.003,0.003,101.0,101.0,99.0,13.3,1505.2,328.4,-0.8,1.8,2470.662,13.28,0.025,83.2
2021-10-15T04:37:03,42.805,6.029,0.013,-0.003,0.027,101.0,101.0,99.0,13.4,1505.2,331.5,-0.8,1.8,2470.633,13.28,0.013,103.0
2021-10-15T04:40:03,42.805,6.029,0.042,-0.011,-0.044,101.0,101.0,100.0,13.4,1505.2,327.6,-0.7,1.8,2470.655,13.28,0.043,104.7
2021-10-15T04:43:03,42.805,6.029,0.024,-0.024,-0.019,100.0,101.0,100.0,13.3,1505.2,327.5,-0.7,1.8,2470.62,13.28,0.033,135.0
2021-10-15T04:46:03,42.805,6.029,0.018,-0.004,-0.02,101.0,101.0,100.0,13.4,1505.2,329.5,-0.7,1.8,2470.63,13.28,0.018,102.5
2021-10-15T04:49:03,42.805,6.029,0.019,-0.032,-0.023,99.0,102.0,100.0,13.4,1505.2,329.4,-0.8,1.8,2470.695,13.28,0.037,149.3
2021-10-15T04:52:03,42.805,6.029,0.034,-0.026,0.012,101.0,100.0,100.0,13.4,1505.2,331.0,-0.7,1.8,2470.638,13.28,0.042,127.4
2021-10-15T04:55:03,42.805,6.029,0.032,-0.012,-0.007,101.0,101.0,100.0,13.4,1505.2,331.1,-0.7,1.8,2470.664,13.28,0.034,110.6
2021-10-15T04:58:03,42.805,6.029,0.004,-0.006,-0.012,101.0,101.0,100.0,13.4,1505.2,328.5,-0.7,1.8,2470.64,13.28,0.007,146.3
2021-10-15T05:04:03,42.805,6.029,0.013,-0.007,-0.015,100.0,101.0,100.0,13.4,1505.2,325.8,-0.8,1.8,2470.658,13.28,0.014,118.3
2021-10-15T05:07:03,42.805,6.029,0.024,-0.012,-0.017,100.0,101.0,100.0,13.4,1505.2,325.0,-0.7,1.8,2470.709,13.28,0.026,116.6
2021-10-15T05:10:03,42.805,6.029,0.01,-0.023,-0.003,101.0,102.0,101.0,13.3,1505.2,330.9,-0.8,1.8,2470.659,13.28,0.025,156.5
2021-10-15T05:13:03,42.805,6.029,0.014,-0.008,-0.003,101.0,101.0,100.0,13.3,1505.2,328.6,-0.7,1.8,2470.633,13.28,0.016,119.7
2021-10-15T05:16:03,42.805,6.029,0.014,-0.006,0.006,100.0,101.0,100.0,13.4,1505.2,328.5,-0.8,1.8,2470.666,13.28,0.015,113.2
2021-10-15T05:19:03,42.805,6.029,0.01,-0.027,-0.005,101.0,101.0,99.0,13.3,1505.2,331.5,-0.8,1.8,2470.624,13.28,0.028,159.7
2021-10-15T05:22:03,42.805,6.029,0.034,-0.023,0.0,100.0,101.0,100.0,13.3,1505.2,329.3,-0.7,1.8,2470.651,13.28,0.041,124.1
2021-10-15T05:25:03,42.805,6.029,0.008,-0.011,-0.026,99.0,101.0,101.0,13.4,1505.2,331.0,-0.8,1.8,2470.644,13.28,0.013,144.0
2021-10-15T05:28:03,42.805,6.029,0.018,0.001,0.017,102.0,100.0,99.0,13.4,1505.2,327.2,-0.8,1.8,2470.62,13.28,0.018,86.8
2021-10-15T05:31:03,42.805,6.029,0.035,0.013,0.003,102.0,101.0,99.0,13.4,1505.2,329.7,-0.8,1.8,2470.578,13.28,0.037,69.6
2021-10-15T05:34:03,42.805,6.029,0.043,-0.004,0.043,101.0,101.0,100.0,13.3,1505.2,330.4,-0.8,1.8,2470.644,13.28,0.043,95.3
2021-10-15T05:37:03,42.805,6.029,0.031,-0.002,0.007,101.0,102.0,100.0,13.3,1505.2,330.8,-0.8,1.8,2470.639,13.28,0.031,93.7
2021-10-15T05:40:03,42.805,6.029,0.024,-0.007,-0.015,101.0,100.0,99.0,13.4,1505.2,327.1,-0.7,1.9,2470.648,13.28,0.025,106.3
2021-10-15T05:43:03,42.805,6.029,-0.007,-0.005,-0.036,101.0,101.0,100.0,13.4,1505.2,331.1,-0.8,1.8,2470.67,13.28,0.008,234.5
2021-10-15T05:46:03,42.805,6.029,0.038,-0.023,-0.022,100.0,101.0,100.0,13.4,1505.2,326.7,-0.8,1.8,2470.629,13.28,0.044,121.2
2021-10-15T05:49:03,42.805,6.029,0.033,-0.012,0.027,101.0,101.0,101.0,13.4,1505.2,329.1,-0.8,1.8,2470.634,13.28,0.035,110.0
2021-10-15T05:52:03,42.805,6.029,0.002,-0.014,-0.019,101.0,100.0,100.0,13.4,1505.2,331.6,-0.7,1.8,2470.629,13.28,0.014,171.9
2021-10-15T05:55:03,42.805,6.029,0.019,0.001,0.019,100.0,101.0,100.0,13.4,1505.2,327.0,-0.7,1.8,2470.652,13.28,0.019,87.0
2021-10-15T05:58:03,42.805,6.029,0.027,-0.043,-0.016,102.0,100.0,100.0,13.4,1505.2,327.6,-0.7,1.9,2470.603,13.28,0.05,147.9
2021-10-15T06:04:03,42.805,6.029,0.006,-0.001,0.0,99.0,100.0,100.0,13.4,1505.2,331.2,-0.7,1.8,2470.666,13.28,0.006,99.5
2021-10-15T06:07:03,42.805,6.029,0.015,-0.005,-0.008,101.0,101.0,100.0,13.4,1505.2,331.1,-0.7,1.8,2470.63,13.28,0.015,108.4
2021-10-15T06:10:03,42.805,6.029,-0.001,-0.005,0.018,101.0,100.0,100.0,13.4,1505.2,329.6,-0.8,1.8,2470.645,13.28,0.005,191.3
2021-10-15T06:13:03,42.805,6.029,0.001,-0.005,0.005,100.0,101.0,100.0,13.4,1505.2,325.9,-0.7,1.8,2470.667,13.28,0.005,168.7
2021-10-15T06:16:03,42.805,6.029,0.0,-0.009,-0.017,101.0,101.0,99.0,13.3,1505.2,327.3,-0.7,1.8,2470.654,13.28,0.009,180.0
2021-10-15T06:19:03,42.805,6.029,-0.014,-0.003,0.007,100.0,101.0,100.0,13.4,1505.2,325.2,-0.7,1.8,2470.576,13.28,0.014,257.9
2021-10-15T06:22:03,42.805,6.029,0.017,-0.01,-0.025,99.0,101.0,100.0,13.4,1505.2,328.9,-0.8,1.8,2470.636,13.28,0.019,120.5
2021-10-15T06:25:03,42.805,6.029,0.002,-0.023,-0.042,102.0,100.0,100.0,13.4,1505.2,328.9,-0.8,1.8,2470.645,13.28,0.023,175.0
2021-10-15T06:28:03,42.805,6.029,0.038,-0.003,0.023,101.0,101.0,100.0,13.4,1505.2,328.1,-0.8,1.8,2470.656,13.28,0.038,94.5
2021-10-15T06:31:03,42.805,6.029,0.028,-0.044,-0.008,102.0,100.0,100.0,13.4,1505.2,331.5,-0.7,1.8,2470.606,13.28,0.052,147.5
2021-10-15T06:34:03,42.805,6.029,0.02,-0.014,-0.025,99.0,101.0,99.0,13.3,1505.2,329.9,-0.7,1.8,2470.587,13.28,0.024,125.0
2021-10-15T06:37:03,42.805,6.029,0.009,-0.012,-0.021,101.0,100.0,100.0,13.4,1505.2,325.8,-0.8,1.8,2470.609,13.28,0.015,143.1
2021-10-15T06:40:03,42.805,6.029,0.003,-0.028,-0.033,100.0,99.0,100.0,13.4,1505.2,329.7,-0.7,1.8,2470.616,13.28,0.028,173.9
2021-10-15T06:43:03,42.805,6.029,0.046,-0.018,-0.017,101.0,102.0,98.0,13.4,1505.2,331.0,-0.8,1.8,2470.615,13.28,0.049,111.4
2021-10-15T06:46:03,42.805,6.029,0.024,-0.022,-0.029,100.0,100.0,101.0,13.4,1505.2,328.1,-0.8,1.8,2470.602,13.28,0.032,132.5
2021-10-15T06:49:03,42.805,6.029,0.012,-0.011,-0.028,100.0,100.0,100.0,13.4,1505.2,330.8,-0.7,1.8,2470.57,13.28,0.016,132.5
2021-10-15T06:52:03,42.805,6.029,0.03,-0.036,-0.009,100.0,100.0,99.0,13.4,1505.2,329.6,-0.8,1.9,2470.627,13.28,0.046,140.2
2021-10-15T06:55:03,42.805,6.029,0.01,-0.01,-0.022,100.0,101.0,100.0,13.3,1505.2,329.3,-0.8,1.8,2470.579,13.28,0.014,135.0
2021-10-15T06:58:03,42.805,6.029,0.011,-0.01,-0.008,98.0,100.0,100.0,13.4,1505.2,329.3,-0.8,1.8,2470.581,13.28,0.014,132.3
2021-10-15T07:01:03,42.805,6.029,0.007,-0.008,-0.005,100.0,99.0,100.0,13.3,1505.2,331.9,-0.8,1.8,2470.622,13.28,0.01,138.8
2021-10-15T07:04:03,42.805,6.029,0.005,-0.017,-0.059,100.0,100.0,100.0,13.3,1505.2,325.6,-0.8,1.8,2470.63,13.28,0.017,163.6
2021-10-15T07:07:03,42.805,6.029,0.006,-0.008,-0.024,100.0,100.0,99.0,13.3,1505.2,326.9,-0.7,1.8,2470.572,13.28,0.01,143.1
2021-10-15T07:10:03,42.805,6.029,0.012,-0.006,-0.014,100.0,100.0,99.0,13.3,1505.2,331.1,-0.8,1.8,2470.568,13.28,0.013,116.6
2021-10-15T07:13:03,42.805,6.029,0.033,-0.031,-0.01,100.0,101.0,100.0,13.4,1505.2,331.1,-0.8,1.8,2470.617,13.28,0.045,133.2
2021-10-15T07:16:03,42.805,6.029,0.001,0.004,-0.018,99.0,99.0,100.0,13.4,1505.2,329.9,-0.8,1.8,2470.566,13.28,0.004,14.0
2021-10-15T07:19:03,42.805,6.029,0.016,-0.017,-0.029,99.0,100.0,101.0,13.3,1505.2,329.0,-0.7,1.8,2470.585,13.28,0.023,136.7
2021-10-15T07:22:03,42.805,6.029,-0.018,-0.019,-0.043,101.0,100.0,100.0,13.4,1505.2,325.7,-0.8,1.8,2470.6,13.28,0.026,223.5
2021-10-15T07:25:03,42.805,6.029,0.014,-0.01,-0.008,99.0,102.0,99.0,13.3,1505.2,327.1,-0.7,1.8,2470.635,13.28,0.017,125.5
2021-10-15T07:28:03,42.805,6.029,0.008,-0.013,-0.018,101.0,101.0,100.0,13.4,1505.2,330.9,-0.8,1.8,2470.612,13.28,0.015,148.4
2021-10-15T07:31:03,42.805,6.029,0.032,-0.034,-0.03,100.0,100.0,99.0,13.4,1505.2,329.8,-0.8,1.8,2470.582,13.28,0.046,136.7
2021-10-15T07:34:03,42.805,6.029,0.002,-0.011,-0.033,100.0,100.0,99.0,13.4,1505.2,325.0,-0.8,1.8,2470.594,13.28,0.011,169.7
2021-10-15T07:37:03,42.805,6.029,0.026,-0.03,-0.01,102.0,99.0,100.0,13.4,1505.2,325.6,-0.7,1.8,2470.624,13.28,0.039,139.1
2021-10-15T07:40:03,42.805,6.029,0.007,0.011,-0.02,101.0,100.0,99.0,13.4,1505.2,329.4,-0.8,1.8,2470.572,13.28,0.013,32.5
2021-10-15T07:43:03,42.805,6.029,0.003,-0.01,-0.034,101.0,101.0,100.0,13.3,1505.2,329.1,-0.8,1.8,2470.597,13.28,0.01,163.3
2021-10-15T07:46:03,42.805,6.029,0.019,-0.024,-0.03,100.0,101.0,100.0,13.4,1505.2,324.8,-0.8,1.8,2470.619,13.28,0.03,141.6
2021-10-15T07:49:03,42.805,6.029,0.032,-0.013,-0.006,102.0,100.0,100.0,13.4,1505.2,331.4,-0.8,1.8,2470.562,13.28,0.034,112.1
2021-10-15T07:52:03,42.805,6.029,0.003,0.012,-0.011,100.0,100.0,100.0,13.4,1505.2,326.3,-0.8,1.8,2470.566,13.28,0.012,14.0
2021-10-15T07:55:03,42.805,6.029,-0.002,-0.031,-0.013,102.0,101.0,100.0,13.3,1505.2,325.7,-0.7,1.8,2470.481,13.28,0.031,183.7
2021-10-15T07:58:03,42.805,6.029,0.011,0.004,-0.019,100.0,100.0,100.0,13.4,1505.2,330.1,-0.8,1.8,2470.474,13.28,0.011,70.0
2021-10-15T08:04:03,42.805,6.029,0.015,0.003,0.0,100.0,100.0,99.0,13.3,1505.2,331.6,-0.7,1.8,2470.441,13.28,0.015,78.7
2021-10-15T08:07:03,42.805,6.029,0.028,-0.007,0.002,100.0,100.0,100.0,13.4,1505.2,328.6,-0.7,1.8,2470.482,13.28,0.028,104.0
2021-10-15T08:10:03,42.805,6.029,0.005,-0.007,-0.042,100.0,101.0,100.0,13.3,1505.2,329.1,-0.8,1.8,2470.479,13.28,0.008,144.5
2021-10-15T08:13:03,42.805,6.029,0.024,-0.015,-0.037,101.0,100.0,100.0,13.4,1505.2,327.8,-0.8,1.8,2470.511,13.28,0.028,122.0
2021-10-15T08:16:03,42.805,6.029,0.0,-0.003,-0.025,103.0,101.0,99.0,13.4,1505.2,327.4,-0.8,1.8,2470.47,13.28,0.003,180.0
2021-10-15T08:19:03,42.805,6.029,0.008,-0.018,-0.03,99.0,100.0,101.0,13.3,1505.2,327.2,-0.8,1.8,2470.513,13.28,0.019,156.0
2021-10-15T08:22:03,42.805,6.029,0.01,-0.008,0.015,100.0,100.0,100.0,13.4,1505.2,329.6,-0.8,1.8,2470.517,13.28,0.012,128.7
2021-10-15T08:25:03,42.805,6.029,0.012,-0.02,-0.015,100.0,101.0,100.0,13.3,1505.2,325.9,-0.8,1.8,2470.515,13.28,0.023,149.0
2021-10-15T08:28:03,42.805,6.029,0.019,0.011,-0.002,100.0,100.0,100.0,13.4,1505.2,331.4,-0.7,1.8,2470.489,13.28,0.021,59.9
2021-10-15T08:31:03,42.805,6.029,0.03,-0.029,-0.029,101.0,100.0,100.0,13.3,1505.2,329.8,-0.7,1.9,2470.558,13.28,0.041,134.0
2021-10-15T08:34:03,42.805,6.029,0.029,-0.038,-0.065,100.0,102.0,99.0,13.4,1505.2,325.4,-0.7,1.8,2470.559,13.28,0.047,142.7
2021-10-15T08:37:03,42.805,6.029,-0.013,-0.002,-0.011,101.0,100.0,98.0,13.3,1505.2,329.4,-0.8,1.8,2470.547,13.28,0.013,261.3
2021-10-15T08:40:03,42.805,6.029,0.018,-0.012,-0.04,101.0,100.0,99.0,13.4,1505.2,330.1,-0.7,1.8,2470.557,13.28,0.021,123.7
2021-10-15T08:43:03,42.805,6.029,0.0,-0.007,-0.016,100.0,101.0,99.0,13.4,1505.2,326.7,-0.8,1.8,2470.553,13.28,0.007,180.0
2021-10-15T08:46:03,42.805,6.029,-0.003,0.016,-0.009,100.0,99.0,101.0,13.4,1505.2,331.6,-0.7,1.8,2470.562,13.28,0.016,349.4
2021-10-15T08:49:03,42.805,6.029,0.006,-0.021,-0.03,101.0,100.0,101.0,13.3,1505.2,326.0,-0.7,1.8,2470.571,13.28,0.021,164.1
2021-10-15T08:52:03,42.805,6.029,0.029,-0.003,0.015,102.0,101.0,99.0,13.4,1505.2,329.7,-0.8,1.8,2470.579,13.28,0.029,95.9
2021-10-15T08:55:03,42.805,6.029,-0.012,-0.006,-0.013,100.0,100.0,100.0,13.4,1505.2,326.1,-0.7,1.8,2470.575,13.28,0.013,243.4
2021-10-15T08:58:03,42.805,6.029,-0.02,-0.028,-0.031,101.0,100.0,99.0,13.3,1505.2,328.6,-0.8,1.8,2470.558,13.28,0.034,215.5
2021-10-15T09:04:03,42.805,6.029,0.021,-0.023,-0.032,101.0,101.0,99.0,13.4,1505.2,326.4,-0.7,1.8,2470.552,13.28,0.031,137.6
2021-10-15T09:07:03,42.805,6.029,0.006,-0.005,-0.028,100.0,100.0,100.0,13.3,1505.2,329.2,-0.7,1.8,2470.642,13.28,0.007,129.8
2021-10-15T09:10:03,42.805,6.029,0.021,-0.011,-0.014,101.0,100.0,99.0,13.3,1505.2,327.3,-0.8,1.8,2470.651,13.28,0.023,117.6
2021-10-15T09:13:03,42.805,6.029,0.021,-0.004,-0.014,100.0,100.0,99.0,13.3,1505.2,329.3,-0.7,1.8,2470.633,13.28,0.021,100.8
2021-10-15T09:16:03,42.805,6.029,-0.024,0.002,-0.02,100.0,99.0,100.0,13.3,1505.2,330.9,-0.7,1.8,2470.586,13.28,0.024,274.8
2021-10-15T09:19:03,42.805,6.029,-0.014,0.006,-0.023,99.0,100.0,101.0,13.4,1505.2,330.8,-0.7,1.8,2470.57,13.28,0.015,293.2
2021-10-15T09:22:03,42.805,6.029,-0.003,-0.02,-0.049,101.0,101.0,98.0,13.3,1505.2,331.0,-0.7,1.8,2470.586,13.28,0.02,188.5
2021-10-15T09:25:03,42.805,6.029,0.001,0.001,-0.016,99.0,102.0,100.0,13.3,1505.2,330.6,-0.8,1.8,2470.589,13.28,0.001,45.0
2021-10-15T09:28:03,42.805,6.029,-0.006,-0.008,-0.01,101.0,100.0,99.0,13.4,1505.2,328.0,-0.8,1.8,2470.59,13.28,0.01,216.9
2021-10-15T09:31:03,42.805,6.029,0.009,-0.018,-0.038,101.0,101.0,98.0,13.4,1505.2,328.7,-0.7,1.9,2470.581,13.28,0.02,153.4
2021-10-15T09:34:03,42.805,6.029,0.011,-0.016,-0.029,103.0,99.0,98.0,13.3,1505.2,325.4,-0.7,1.8,2470.524,13.28,0.019,145.5
2021-10-15T09:37:03,42.805,6.029,-0.013,0.003,-0.018,101.0,100.0,100.0,13.4,1505.2,329.7,-0.7,1.8,2470.557,13.28,0.013,283.0
2021-10-15T09:40:03,42.805,6.029,-0.012,-0.003,-0.026,100.0,101.0,100.0,13.4,1505.2,327.4,-0.8,1.8,2470.555,13.28,0.012,256.0
2021-10-15T09:43:03,42.805,6.029,0.023,-0.021,-0.05,102.0,100.0,99.0,13.4,1505.2,329.4,-0.8,1.8,2470.591,13.28,0.031,132.4
2021-10-15T09:46:03,42.805,6.029,-0.021,0.004,-0.008,100.0,101.0,101.0,13.4,1505.2,330.8,-0.8,1.8,2470.623,13.28,0.021,280.8
2021-10-15T09:49:03,42.805,6.029,-0.006,0.002,-0.046,98.0,100.0,100.0,13.4,1505.2,328.0,-0.7,1.8,2470.563,13.28,0.006,288.4
2021-10-15T09:52:03,42.805,6.029,0.007,-0.043,-0.038,97.0,100.0,100.0,13.4,1505.2,325.5,-0.8,1.8,2470.595,13.28,0.043,170.8
2021-10-15T09:55:03,42.805,6.029,-0.006,-0.007,-0.026,98.0,100.0,100.0,13.4,1505.2,325.6,-0.8,1.8,2470.563,13.28,0.009,220.6
2021-10-15T09:58:03,42.805,6.029,0.013,-0.02,-0.022,100.0,100.0,99.0,13.4,1505.2,326.7,-0.7,1.8,2470.566,13.28,0.023,147.0